This is the latest recevied weather packets stored in our database for station/object N1IJV-10. If no packets are shown the sender has not sent any weather packets the latest 10 day(s).
| Time | Temp. | Humidity | Pressure | Rain* | Wind** | Luminosity | Snow |
|---|---|---|---|---|---|---|---|
| 1778001450 | 13.89° C | 48% | 1008.6 hPa | 0 mm | - | 383 W/m² | - |
| 1778001147 | 13.33° C | 45% | 1008.4 hPa | 0 mm | - | 372 W/m² | - |
| 1778000844 | 13.89° C | 41% | 1008.3 hPa | 0 mm | - | 414 W/m² | - |
| 1778000541 | 13.89° C | 45% | 1008.5 hPa | 0 mm | - | 478 W/m² | - |
| 1778000236 | 13.89° C | 45% | 1008.3 hPa | 0 mm | - | 468 W/m² | - |
| 1777999932 | 14.44° C | 43% | 1008.3 hPa | 0 mm | - | 419 W/m² | - |
| 1777999627 | 13.89° C | 43% | 1008.2 hPa | 0 mm | - | 485 W/m² | - |
| 1777999325 | 13.89° C | 42% | 1008.2 hPa | 0 mm | - | 656 W/m² | - |
| 1777999023 | 13.89° C | 42% | 1008.3 hPa | 0 mm | - | 688 W/m² | - |
| 1777998721 | 13.89° C | 44% | 1008.4 hPa | 0 mm | - | 661 W/m² | - |
| 1777998418 | 13.33° C | 44% | 1008.6 hPa | 0 mm | - | 622 W/m² | - |
| 1777998116 | 13.89° C | 47% | 1008.5 hPa | 0 mm | - | 625 W/m² | - |
| 1777997812 | 12.78° C | 47% | 1008.6 hPa | 0 mm | - | 724 W/m² | - |
| 1777997509 | 12.78° C | 53% | 1008.5 hPa | 0 mm | - | 429 W/m² | - |
| 1777997207 | 12.78° C | 51% | 1008.5 hPa | 0 mm | - | 526 W/m² | - |
| 1777996905 | 12.22° C | 53% | 1008.4 hPa | 0 mm | - | 429 W/m² | - |
| 1777996601 | 11.67° C | 56% | 1008.2 hPa | 0 mm | - | 310 W/m² | - |
| 1777996297 | 12.78° C | 54% | 1008.1 hPa | 0 mm | - | 281 W/m² | - |
| 1777995993 | 12.22° C | 53% | 1008.5 hPa | 0 mm | - | 410 W/m² | - |
| 1777995689 | 12.22° C | 57% | 1008.3 hPa | 0 mm | - | 491 W/m² | - |
| 1777995387 | 12.22° C | 61% | 1008.2 hPa | 0 mm | - | 669 W/m² | - |
| 1777995084 | 12.22° C | 55% | 1008.1 hPa | 0 mm | - | 617 W/m² | - |
| 1777994780 | 12.22° C | 55% | 1008 hPa | 0 mm | - | 640 W/m² | - |
| 1777994476 | 11.67° C | 62% | 1008.1 hPa | 0 mm | - | 553 W/m² | - |
| 1777994172 | 11.67° C | 54% | 1008.1 hPa | 0 mm | - | 345 W/m² | - |
* Rain latest hour (hover to see other rain measurements)
** Current wind speed in m/s (hover to see current wind gust speed)